Regional Weather Roundup
Issued by NWS Cleveland, OH

Home | Current Version | Previous Version | Graphics & Text | Print | Product List | Glossary On
Versions: 1 2 3 4 5 6 7 8 9 10 11 12 13 14 15 16 17 18 19 20 21 22 23 24 25 26 27 28 29 30 31 32 33 34 35 36 37 38 39 40 41 42 43 44 45 46 47 48 49 50
000
ASUS41 KCLE 061700
RWRCLE
OHIO REGIONAL WEATHER ROUNDUP
NATIONAL WEATHER SERVICE WILMINGTON, OH
100 PM EDT FRI MAY 06 2016

NOTE: "FAIR" INDICATES FEW OR NO CLOUDS BELOW 12,000 FEET WITH NO
SIGNIFICANT WEATHER AND/OR OBSTRUCTIONS TO VISIBILITY.

OHZ001>008-015>018-024>027-034-035-043-044-061800-
   NORTHWEST OHIO

CITY           SKY/WX    TMP DP  RH WIND       PRES   REMARKS
DEFIANCE       FAIR      66  42  41 W7        29.97F
FINDLAY        FAIR      67  39  35 VRB7      29.95F
TOLEDO EXPRESS FAIR      66  37  34 N8        29.96F
TOLEDO EXEC    FAIR      67  39  35 VRB6      29.96F
LIMA           FAIR      63  43  48 W6        29.97F
$$

OHZ009>014-019>023-028>033-038-089-061800-
   NORTHEAST OHIO

CITY           SKY/WX    TMP DP  RH WIND       PRES   REMARKS
CLE-HOPKINS    FAIR      61  43  51 N12       29.95F
CLE-LAKEFRONT  FAIR      56  48  74 W13       29.92F
CUY CO. ARPT   MOSUNNY   63  45  51 N12       29.93S
LORAIN-ELYRIA  FAIR      60  44  55 N8        29.94F
ASHTABULA      FAIR      61  39  44 N9G20     29.89F
AKRON-CANTON   FAIR      64  37  36 N21G30    29.87F
WOOSTER        NOT AVBL
MANSFIELD      FAIR      64  42  44 N17G23    29.93F
YOUNGSTOWN     FAIR      66  36  32 N26G33    29.84F
$$

OHZ042-051>053-060>062-070>072-077>081-061800-
  SOUTHWEST OHIO

CITY           SKY/WX    TMP DP  RH WIND       PRES   REMARKS
CINC-COVINGTON FAIR      66  45  46 NW7       29.98F
CINC-LUNKEN    FAIR      68  44  42 N13       29.97F
HAMILTON       FAIR      68  46  45 N9        29.98F
DAYTON         NOT AVBL
WRIGHT-PAT AFB NOT AVBL
DAYTON GENERAL FAIR      67  38  34 N13G18    29.96F
WILMINGTON     FAIR      65  44  46 N12       29.95F
$$

OHZ036-037-039>041-045>050-054>059-063>069-073>076-082>088-061800-
  CENTRAL AND SOUTHEAST OHIO

CITY           SKY/WX    TMP DP  RH WIND       PRES   REMARKS
COLUMBUS       FAIR      65  40  39 N20G25    29.92F
OSU AIRPORT    FAIR      66  42  41 N13G21    29.93F
BOLTON FIELD   SUNNY     64  48  55 N17       29.94F
RICKENBACK AFB NOT AVBL
NEWARK         CLOUDY    67  38  34 N10G21    29.90F
MARION         FAIR      65  40  39 N14G22    29.95F
LANCASTER      FAIR      66  43  43 N14G24    29.91F
ZANESVILLE     CLOUDY    67  39  35 N12G18    29.88F
NEW PHILLY     PTSUNNY   67  39  35 N12G20    29.86F
$$




USA.gov is the U.S. government's official web portal to all federal, state and local government web resources and services.